SR8NGO-1 Weather Reports


Display with metric or nautical units.
time (UTC)temp
F
wind
direction
speed
MPH
gust
MPH
rain 1hr
in
rain 24hr
in
rain mn
in
humidity
%
barometer
mb
20260906002415 54 230 15.0 55.0 4.92 0.89 0.00 73 1005.0
20260906002015 54 225 17.0 55.0 4.92 0.89 0.00 73 1005.0
20260906001615 54 228 19.0 55.0 4.92 0.89 0.00 73 1004.9
20260906001215 54 220 13.0 55.0 4.92 0.88 0.00 72 1004.9
20260906000815 54 221 22.0 55.0 4.92 0.88 0.00 72 1004.8
20260906000415 54 207 23.0 55.0 4.92 0.88 0.00 71 1004.8
20260906000015 54 222 24.0 55.0 4.92 0.89 0.00 71 1004.8
20260905235615 54 215 18.0 55.0 4.92 0.89 0.00 70 1004.8
20260905235215 54 218 15.0 55.0 4.92 0.90 0.00 70 1004.7
20260905234815 54 214 16.0 55.0 4.92 0.90 0.00 70 1004.7
20260905234415 55 234 26.0 55.0 4.92 0.91 0.00 69 1004.7
20260905234015 55 263 28.0 55.0 4.92 0.91 0.00 69 1004.7
20260905233615 55 232 19.0 55.0 4.92 0.91 0.00 69 1004.7
20260905233215 55 220 19.0 55.0 4.92 0.91 0.00 69 1004.7
20260905232815 55 238 19.0 55.0 4.92 0.92 0.00 69 1004.7
20260905232415 55 234 20.0 55.0 4.92 0.93 0.00 68 1004.7
20260905232015 55 252 18.0 55.0 4.92 0.93 0.00 68 1004.7
20260905231615 55 237 22.0 55.0 4.92 0.93 0.00 67 1004.7
20260905231215 55 220 17.0 55.0 4.92 0.92 0.00 68 1004.6
20260905230815 55 217 17.0 55.0 4.92 0.93 0.00 68 1004.7
20260905230415 55 211 17.0 55.0 4.92 0.93 0.00 68 1004.7
20260905230015 55 239 10.0 55.0 4.92 0.93 0.00 68 1004.7
20260905225615 55 237 14.0 55.0 4.92 0.94 0.00 67 1004.6
20260905225215 57 222 17.0 55.0 4.92 0.94 0.00 66 1004.6
20260905224815 57 268 17.0 55.0 4.92 0.95 0.00 66 1004.5
20260905224015 57 256 19.0 55.0 4.92 0.95 0.00 66 1004.6
20260905223615 57 232 31.0 55.0 4.92 0.95 0.00 66 1004.7
20260905223215 57 221 14.0 55.0 4.92 0.94 0.00 67 1004.8
20260905222815 57 232 31.0 55.0 4.92 0.94 0.00 67 1004.8
20260905222415 57 239 17.0 55.0 4.96 0.94 0.00 67 1004.8
20260905222015 57 235 18.0 55.0 4.96 0.95 0.00 67 1004.8
20260905221615 57 230 15.0 55.0 4.96 0.94 0.00 67 1004.7
20260905221215 57 242 22.0 55.0 4.96 0.94 0.00 68 1004.8
20260905220815 55 203 11.0 55.0 4.96 0.94 0.00 68 1004.8
20260905220415 57 228 7.0 55.0 4.96 0.94 0.00 68 1004.7
20260905220015 55 253 21.0 55.0 4.96 0.93 0.00 69 1004.7
20260905215615 55 218 23.0 55.0 4.96 0.93 0.00 72 1004.7
20260905215215 55 211 10.0 55.0 4.96 0.91 0.00 74 1004.7
20260905214815 55 218 15.0 55.0 4.96 0.91 0.00 74 1004.7
20260905214415 55 214 7.0 55.0 4.96 0.91 0.00 74 1004.6
20260905214015 55 189 7.0 55.0 4.96 0.91 0.00 73 1004.6
20260905213615 55 193 8.0 55.0 4.96 0.91 0.00 73 1004.7
20260905213215 55 192 9.0 55.0 4.96 0.91 0.00 73 1004.6
20260905212815 55 194 7.0 55.0 4.96 0.91 0.00 73 1004.6
20260905212415 55 189 6.0 55.0 4.96 0.91 0.00 73 1004.6
20260905212015 55 194 7.0 55.0 4.96 0.91 0.00 72 1004.6
20260905211615 55 180 6.0 55.0 4.96 0.91 0.00 72 1004.7
20260905211215 55 196 9.0 55.0 4.96 0.91 0.00 72 1004.8
20260905210815 55 204 7.0 55.0 4.96 0.91 0.00 71 1004.8
20260905210415 55 187 8.0 55.0 4.96 0.92 0.00 71 1004.7
20260905210025 55 193 7.0 55.0 4.96 0.93 0.00 71 1004.7
20260905205615 55 187 5.0 55.0 4.96 0.93 0.00 70 1004.7
20260905205215 55 210 7.0 55.0 4.96 0.93 0.00 70 1004.6
20260905204815 55 211 6.0 55.0 4.96 0.93 0.00 69 1004.7
20260905204415 55 208 8.0 55.0 4.96 0.92 0.00 69 1004.8
20260905204015 55 217 5.0 55.0 4.96 0.91 0.00 68 1004.8
20260905203615 55 227 5.0 55.0 4.96 0.92 0.00 69 1004.8
20260905203215 55 214 4.0 55.0 4.96 0.93 0.00 68 1004.8
20260905202815 55 221 6.0 55.0 4.96 0.93 0.00 67 1004.8
20260905202415 55 241 8.0 55.0 4.96 0.94 0.00 66 1004.9
20260905202015 57 221 8.0 55.0 4.96 0.94 0.00 65 1004.9
20260905201615 57 245 8.0 55.0 4.96 0.94 0.00 66 1004.9
20260905201215 55 263 6.0 55.0 4.96 0.93 0.00 66 1005.0
20260905200815 57 284 7.0 55.0 4.96 0.93 0.00 68 1005.0
20260905200415 57 256 11.0 55.0 4.96 0.94 0.00 67 1004.9
20260905200015 57 286 8.0 55.0 4.96 0.95 0.00 65 1005.1
20260905195615 57 259 5.0 55.0 4.96 0.95 0.00 68 1005.1
20260905195215 57 266 8.0 55.0 4.96 0.94 0.00 65 1005.1
20260905194815 57 252 7.0 55.0 4.96 0.96 0.00 66 1004.9
20260905194415 57 245 8.0 55.0 4.96 0.96 0.00 66 1005.0
20260905194015 57 266 10.0 55.0 4.96 0.96 0.00 65 1005.0
20260905193616 57 256 9.0 55.0 4.96 0.96 0.00 65 1004.9
20260905193215 57 258 9.0 55.0 4.96 0.95 0.00 65 1005.1
20260905192814 57 270 5.0 55.0 4.96 0.95 0.00 66 1005.1
20260905192415 57 251 8.0 55.0 4.96 0.95 0.00 64 1005.0
20260905192015 57 245 7.0 55.0 4.96 0.94 0.00 65 1004.8
20260905191615 57 230 7.0 55.0 4.96 0.95 0.00 64 1004.8
20260905191214 57 237 8.0 55.0 4.96 0.94 0.00 65 1004.8
20260905190814 57 251 6.0 55.0 4.96 0.94 0.00 64 1004.8
20260905190415 57 253 5.0 55.0 4.96 0.93 0.00 66 1004.8
20260905190015 55 239 6.0 55.0 4.96 0.91 0.00 66 1004.8
20260905185615 57 283 6.0 55.0 4.96 0.91 0.00 66 1004.8
20260905185215 57 245 3.0 55.0 4.96 0.92 0.00 65 1004.8
20260905184814 57 249 4.0 55.0 4.96 0.94 0.00 64 1004.8
20260905184415 57 218 2.0 55.0 4.96 0.95 0.00 63 1004.7
20260905184015 57 231 3.0 55.0 4.96 0.95 0.00 63 1004.7
20260905183615 57 256 6.0 55.0 4.96 0.97 0.00 61 1004.8
20260905183214 59 258 8.0 55.0 4.96 1.01 0.00 58 1005.0
20260905182815 59 262 9.0 55.0 4.96 1.00 0.00 59 1005.0
20260905182415 59 252 11.0 55.0 4.96 1.00 0.00 61 1004.9
20260905182015 59 262 10.0 55.0 4.96 1.00 0.00 62 1004.8
20260905181614 59 289 8.0 55.0 4.96 1.00 0.00 58 1004.7
20260905181214 59 231 9.0 55.0 4.96 1.00 0.00 59 1004.5
20260905180814 59 231 8.0 55.0 4.96 0.98 0.00 60 1004.4
20260905180417 59 234 8.0 55.0 4.96 0.98 0.00 59 1004.3
20260905180014 59 214 10.0 55.0 4.96 0.99 0.00 60 1004.3
20260905175614 59 211 8.0 55.0 4.96 0.99 0.00 59 1004.2
20260905175214 59 222 6.0 55.0 4.96 1.00 0.00 58 1004.1
20260905174814 61 221 7.0 55.0 4.96 1.01 0.00 56 1004.1
20260905174414 61 197 6.0 55.0 4.96 1.02 0.00 55 1004.1
20260905174015 61 230 11.0 55.0 4.96 1.02 0.00 56 1004.1
20260905173614 61 213 9.0 55.0 4.96 1.02 0.00 55 1004.1
20260905173214 61 224 7.0 55.0 4.96 1.02 0.00 55 1004.1
20260905172814 61 235 9.0 55.0 4.96 1.02 0.00 54 1004.1
20260905172414 61 228 8.0 55.0 4.96 1.02 0.00 53 1004.0
20260905172014 61 241 9.0 55.0 4.96 1.02 0.00 53 1004.0
20260905171614 61 225 9.0 55.0 4.96 1.04 0.00 53 1004.0
20260905171214 61 230 13.0 55.0 4.96 1.05 0.00 53 1003.9
20260905170814 63 217 8.0 55.0 4.96 1.06 0.00 52 1003.9
20260905170414 63 230 10.0 55.0 4.96 1.06 0.00 51 1003.9
20260905170014 63 228 12.0 55.0 5.00 1.07 0.00 52 1003.9
20260905165614 63 225 15.0 55.0 5.00 1.07 0.00 53 1003.8
20260905165214 63 206 11.0 55.0 5.00 1.05 0.00 52 1003.8
20260905164814 63 211 16.0 55.0 5.04 1.08 0.00 51 1003.8
20260905164414 64 218 15.0 55.0 5.08 1.09 0.00 48 1003.8
20260905164014 64 246 18.0 55.0 5.12 1.09 0.00 48 1003.8
20260905163614 64 231 17.0 55.0 5.16 1.10 0.00 48 1003.8
20260905163214 66 242 19.0 55.0 5.24 1.10 0.00 50 1003.7
20260905162814 64 221 21.0 55.0 5.24 1.11 0.00 47 1003.6
20260905162414 66 208 13.0 55.0 5.31 1.13 0.00 48 1003.6
20260905162014 68 239 15.0 55.0 5.39 1.13 0.00 48 1003.7
20260905161614 68 224 16.0 55.0 5.39 1.15 0.00 50 1003.6
20260905161214 68 244 14.0 55.0 5.39 1.14 0.00 47 1003.7
20260905160814 66 220 19.0 55.0 5.28 1.12 0.00 46 1003.7
20260905160414 64 228 20.0 55.0 5.35 1.12 0.00 47 1003.6
20260905160014 66 228 19.0 55.0 5.39 1.13 0.00 47 1003.5
20260905155614 66 235 16.0 55.0 5.39 1.14 0.00 46 1003.5
20260905155214 66 245 19.0 55.0 5.39 1.15 0.00 46 1003.5
20260905154814 66 249 18.0 55.0 5.39 1.13 0.00 46 1003.4
20260905154414 66 249 21.0 55.0 5.39 1.14 0.00 45 1003.4
20260905154014 66 246 23.0 55.0 5.39 1.14 0.00 47 1003.4
20260905153614 66 213 15.0 55.0 5.39 1.15 0.00 45 1003.3
20260905153214 66 222 13.0 55.0 5.39 1.16 0.00 44 1003.2
20260905152814 68 214 22.0 55.0 5.39 1.16 0.00 46 1003.2
20260905152414 70 237 18.0 55.0 5.39 1.18 0.00 46 1003.2
20260905152014 66 242 13.0 55.0 5.39 1.15 0.00 45 1003.2
20260905151614 66 206 19.0 55.0 5.39 1.15 0.00 44 1003.1
20260905151214 66 228 15.0 55.0 5.39 1.16 0.00 44 1003.1
20260905150814 68 255 25.0 55.0 5.39 1.17 0.00 44 1003.0
20260905150414 70 263 23.0 55.0 5.39 1.20 0.00 43 1003.0
20260905150014 72 244 29.0 55.0 5.39 1.22 0.00 44 1002.9
20260905145614 73 239 21.0 55.0 5.39 1.22 0.00 45 1002.9
20260905145214 72 245 21.0 55.0 5.39 1.22 0.00 45 1002.9
20260905144814 73 232 11.0 55.0 5.39 1.21 0.00 47 1002.9
20260905144414 70 248 22.0 55.0 5.39 1.21 0.00 45 1002.9
20260905144014 72 244 32.0 55.0 5.39 1.25 0.00 44 1002.9
20260905143614 72 253 24.0 55.0 5.39 1.24 0.00 44 1002.8
20260905143214 72 249 20.0 55.0 5.39 1.20 0.00 44 1002.8
20260905142814 73 225 26.0 55.0 5.39 1.23 0.00 44 1002.7
20260905142414 72 194 22.0 55.0 5.39 1.22 0.00 44 1002.7
20260905142014 70 214 25.0 55.0 5.39 1.21 0.00 45 1002.7
20260905141614 73 253 37.0 55.0 5.39 1.22 0.00 44 1002.7
20260905141214 73 222 17.0 55.0 5.39 1.24 0.00 46 1002.6
20260905140816 73 228 18.0 55.0 5.39 1.24 0.00 47 1002.7
20260905140414 75 244 22.0 55.0 5.39 1.25 0.00 47 1002.7
20260905140016 70 244 26.0 55.0 5.39 1.21 0.00 45 1002.7
20260905135614 70 248 16.0 55.0 5.39 1.21 0.00 45 1002.7
20260905135214 68 224 20.0 55.0 5.39 1.19 0.00 44 1002.7
20260905134814 68 235 15.0 55.0 5.39 1.18 0.00 44 1002.6
20260905134414 68 241 24.0 55.0 5.39 1.18 0.00 43 1002.6
20260905134014 68 228 15.0 55.0 5.39 1.18 0.00 45 1002.6
20260905133614 72 242 11.0 55.0 5.39 1.23 0.00 49 1002.6
20260905133214 73 215 16.0 55.0 5.39 1.24 0.00 46 1002.6
20260905132814 75 230 13.0 55.0 5.39 1.26 0.00 47 1002.6
20260905132414 73 235 24.0 55.0 5.39 1.24 0.00 44 1002.6
20260905132014 75 245 16.0 55.0 5.39 1.26 0.00 46 1002.6
20260905131614 75 256 16.0 55.0 5.39 1.25 0.00 47 1002.6
20260905131214 68 207 12.0 55.0 5.39 1.20 0.00 45 1002.6
20260905130814 68 230 18.0 55.0 5.39 1.19 0.00 46 1002.6
20260905130414 68 224 26.0 55.0 5.39 1.19 0.00 45 1002.6
20260905130014 72 211 21.0 55.0 5.39 1.24 0.00 57 1002.6
20260905125614 73 182 25.0 55.0 5.39 1.25 0.00 51 1002.6
20260905125214 70 224 16.0 55.0 5.39 1.21 0.00 49 1002.5
20260905124814 75 214 19.0 55.0 5.39 1.27 0.00 48 1002.5
20260905124414 68 225 27.0 55.0 5.39 1.19 0.00 46 1002.5
20260905124014 70 231 23.0 55.0 5.39 1.21 0.00 47 1002.5
20260905123614 73 199 31.0 55.0 5.39 1.24 0.00 63 1002.4
20260905123214 75 230 19.0 55.0 5.39 1.24 0.00 53 1002.6
20260905122814 75 221 12.0 55.0 5.39 1.23 0.00 51 1002.6
20260905122414 68 262 20.0 55.0 5.39 1.18 0.00 50 1002.7
20260905122014 68 217 17.0 55.0 5.39 1.18 0.00 51 1002.7
20260905121614 68 234 21.0 55.0 5.39 1.17 0.00 47 1002.7
20260905121214 68 221 17.0 55.0 5.39 1.17 0.00 49 1002.7
20260905120814 68 231 18.0 55.0 5.39 1.17 0.00 48 1002.7
20260905120414 68 227 18.0 55.0 5.39 1.20 0.00 48 1002.7
20260905120014 77 210 27.0 55.0 5.39 1.27 0.00 55 1002.6
20260905115614 70 217 31.0 55.0 5.39 1.19 0.00 50 1002.6
20260905115214 70 214 23.0 55.0 5.39 1.20 0.00 52 1002.6
20260905114814 72 217 16.0 55.0 5.39 1.20 0.00 53 1002.6
20260905114414 68 227 19.0 55.0 5.39 1.16 0.00 50 1002.7
20260905114014 68 230 12.0 55.0 5.39 1.19 0.00 52 1002.8
20260905113614 75 207 19.0 55.0 5.39 1.25 0.00 57 1002.7
20260905113214 68 246 21.0 55.0 5.39 1.17 0.00 52 1002.7
20260905112814 68 224 24.0 55.0 5.39 1.17 0.00 54 1002.7
20260905112414 66 231 26.0 55.0 5.39 1.16 0.00 55 1002.7
20260905112014 68 199 25.0 55.0 5.39 1.17 0.00 56 1002.7
20260905111614 70 214 29.0 55.0 5.39 1.19 0.00 54 1002.6
20260905111214 73 227 18.0 55.0 5.39 1.22 0.00 57 1002.7
20260905110814 70 218 22.0 55.0 5.39 1.21 0.00 57 1002.7
20260905110414 68 214 21.0 55.0 5.39 1.17 0.00 54 1002.7
20260905110014 66 204 13.0 55.0 5.39 1.14 0.00 57 1002.7
20260905105614 66 210 21.0 55.0 5.39 1.13 0.00 61 1002.7
20260905105214 68 244 11.0 55.0 5.39 1.16 0.00 56 1002.7
20260905104814 72 201 19.0 55.0 5.39 1.18 0.00 60 1002.7
20260905104414 73 225 24.0 55.0 5.39 1.20 0.00 63 1002.7
20260905104014 73 213 25.0 55.0 5.39 1.21 0.00 57 1002.7
20260905103614 72 235 31.0 55.0 5.39 1.19 0.00 58 1002.6
20260905103214 68 225 19.0 55.0 5.39 1.16 0.00 59 1002.6
20260905102816 73 232 21.0 55.0 5.39 1.20 0.00 60 1002.6
20260905102416 68 221 15.0 55.0 5.39 1.16 0.00 59 1002.6
20260905102016 75 193 13.0 55.0 5.39 1.20 0.00 63 1002.5
20260905101616 72 249 20.0 55.0 5.39 1.15 0.00 60 1002.6
20260905101216 66 230 17.0 55.0 5.39 1.12 0.00 60 1002.6
20260905100814 66 231 20.0 55.0 5.39 1.11 0.00 59 1002.5
20260905100016 64 196 14.0 55.0 5.39 1.11 0.00 59 1002.6
20260905095616 64 221 24.0 55.0 5.39 1.11 0.00 57 1002.5
20260905095216 64 239 28.0 55.0 5.39 1.13 0.00 56 1002.4
20260905094816 66 234 30.0 55.0 5.39 1.14 0.00 57 1002.4
20260905094416 66 224 21.0 55.0 5.39 1.15 0.00 59 1002.4
20260905094014 68 220 16.0 55.0 5.39 1.17 0.00 59 1002.4
20260905093614 72 237 23.0 55.0 5.39 1.19 0.00 58 1002.3
20260905093214 73 235 15.0 55.0 5.39 1.19 0.00 58 1002.3
20260905092814 70 263 17.0 55.0 5.39 1.15 0.00 55 1002.4
20260905092414 66 224 38.0 55.0 5.39 1.13 0.00 54 1002.3
20260905092014 68 234 33.0 55.0 5.39 1.15 0.00 54 1002.2
20260905091614 70 245 29.0 55.0 5.39 1.18 0.00 57 1002.2
20260905091214 70 210 21.0 55.0 5.43 1.16 0.00 59 1002.2
20260905090814 68 225 40.0 55.0 5.43 1.15 0.00 58 1002.2
20260905090414 70 253 31.0 55.0 5.43 1.17 0.00 57 1002.2
20260905090014 68 228 23.0 55.0 5.43 1.17 0.00 58 1002.2
20260905085614 73 224 16.0 55.0 5.43 1.20 0.00 61 1002.0
20260905085214 72 194 21.0 55.0 5.43 1.16 0.00 60 1002.1
20260905084814 70 249 26.0 55.0 5.43 1.15 0.00 60 1002.0
20260905084414 70 245 30.0 55.0 5.43 1.15 0.00 65 1001.9
20260905084014 73 252 25.0 55.0 5.43 1.17 0.00 63 1002.1
20260905083616 66 228 18.0 55.0 5.43 1.11 0.00 62 1002.0
20260905083214 68 260 31.0 55.0 5.43 1.11 0.00 62 1002.0
20260905082814 66 232 28.0 55.0 5.43 1.10 0.00 63 1001.9
20260905082414 66 224 24.0 55.0 5.43 1.10 0.00 64 1001.8
20260905082014 68 225 20.0 55.0 5.43 1.11 0.00 66 1001.9
20260905081614 64 221 13.0 55.0 5.43 1.09 0.00 65 1001.9
20260905081214 64 222 30.0 55.0 5.43 1.09 0.00 66 1001.9
20260905080814 64 214 13.0 55.0 5.43 1.09 0.00 67 1001.7
20260905080414 66 222 24.0 55.0 5.43 1.12 0.00 67 1002.0
20260905080014 66 235 20.0 55.0 5.43 1.11 0.00 68 1002.0
20260905075614 64 224 16.0 55.0 5.43 1.08 0.00 67 1001.9
20260905075214 63 228 19.0 55.0 5.43 1.08 0.00 66 1001.8
20260905074814 63 225 17.0 55.0 5.43 1.08 0.00 66 1001.8
20260905074414 63 241 20.0 55.0 5.43 1.08 0.00 68 1001.7
20260905074014 63 193 18.0 55.0 5.43 1.09 0.00 67 1001.5
20260905073614 63 221 40.0 55.0 5.43 1.08 0.00 69 1001.4
20260905073214 63 231 28.0 55.0 5.43 1.07 0.00 69 1001.5
20260905072814 61 207 23.0 55.0 5.43 1.07 0.00 69 1001.5
20260905072414 63 210 19.0 55.0 5.43 1.10 0.00 70 1001.6
20260905072014 64 230 21.0 55.0 5.43 1.11 0.00 71 1001.5
20260905071614 64 230 19.0 55.0 5.43 1.08 0.00 71 1001.4
20260905071214 63 251 23.0 55.0 5.43 1.08 0.00 70 1001.4
20260905070814 64 220 24.0 55.0 5.43 1.09 0.00 72 1001.4
20260905070414 63 231 17.0 55.0 5.43 1.08 0.00 72 1001.4
20260905070014 63 242 22.0 55.0 5.43 1.06 0.00 72 1001.3
20260905065614 63 249 20.0 55.0 5.28 1.06 0.00 72 1001.3
20260905065214 63 214 20.0 55.0 5.39 1.06 0.00 73 1001.1
20260905064814 63 221 20.0 55.0 5.35 1.06 0.00 74 1001.1
20260905064414 63 231 17.0 55.0 5.31 1.06 0.00 74 1000.9
20260905064014 61 215 36.0 55.0 5.28 1.05 0.00 75 1000.8
20260905063614 61 244 21.0 55.0 5.20 1.05 0.00 75 1000.7
20260905063216 61 210 21.0 55.0 5.24 1.05 0.00 76 1000.5
20260905062814 61 231 15.0 55.0 5.20 1.04 0.00 76 1000.5
20260905062414 61 224 17.0 55.0 5.20 1.04 0.00 76 1000.6
20260905062014 61 213 17.0 55.0 5.16 1.04 0.00 76 1000.7
20260905061614 61 206 22.0 55.0 5.16 1.04 0.00 77 1000.7
20260905061214 61 213 21.0 55.0 5.08 1.04 0.00 77 1000.7
20260905060814 61 201 18.0 55.0 5.00 1.03 0.00 77 1000.8
20260905060414 61 217 13.0 55.0 5.04 1.03 0.00 77 1000.8
20260905060014 61 235 22.0 55.0 5.04 1.03 0.00 77 1000.7
20260905055614 61 211 15.0 55.0 5.08 1.03 0.00 78 1000.7
20260905055214 61 220 25.0 55.0 5.00 1.03 0.00 77 1000.4
20260905054814 61 204 21.0 55.0 5.04 1.03 0.00 78 1000.5
20260905054414 61 222 17.0 55.0 5.00 1.03 0.00 78 1000.4
20260905054014 61 220 14.0 55.0 4.96 1.03 0.00 78 1000.4
20260905053614 61 231 21.0 55.0 4.88 1.03 0.00 78 1000.3
20260905053214 61 234 13.0 55.0 4.88 1.02 0.00 78 1000.4
20260905052814 61 218 21.0 55.0 4.92 1.02 0.00 78 1000.3
20260905052414 59 228 14.0 55.0 4.92 1.02 0.00 78 1000.2
20260905052014 59 204 19.0 55.0 4.88 1.01 0.00 78 1000.1
20260905051614 61 225 27.0 55.0 4.92 1.02 0.00 78 1000.1
20260905051213 61 208 18.0 55.0 4.92 1.02 0.00 78 1000.1
20260905050814 61 215 16.0 55.0 4.92 1.03 0.00 77 1000.0
20260905050413 61 218 22.0 55.0 4.88 1.03 0.00 78 999.8
20260905050014 61 201 16.0 55.0 4.92 1.03 0.00 78 999.6
20260905045614 61 231 20.0 55.0 4.88 1.02 0.00 78 999.6
20260905045214 61 200 12.0 55.0 4.88 1.02 0.00 78 999.8
20260905044816 61 221 25.0 55.0 4.88 1.02 0.00 78 999.7
20260905044414 59 234 11.0 55.0 4.88 1.02 0.00 78 999.6
20260905044014 59 210 13.0 55.0 4.88 1.02 0.00 78 999.5
20260905043614 59 200 17.0 55.0 4.88 1.02 0.00 78 999.3
20260905043214 61 206 13.0 55.0 4.88 1.02 0.00 78 999.3
20260905042813 61 215 21.0 55.0 4.88 1.02 0.00 78 999.4
20260905042413 61 218 22.0 55.0 4.88 1.02 0.00 78 999.5
20260905042014 59 208 12.0 55.0 4.88 1.01 0.00 78 999.1
20260905041614 61 222 19.0 55.0 4.88 1.02 0.00 78 999.2
20260905041213 59 197 18.0 55.0 4.88 1.01 0.00 78 999.2
20260905040815 59 224 24.0 55.0 4.88 1.02 0.00 78 999.3
20260905040414 61 207 23.0 55.0 4.88 1.02 0.00 78 999.5
20260905040014 59 225 18.0 55.0 4.88 1.01 0.00 78 999.6
20260905035614 61 218 27.0 55.0 4.88 1.02 0.00 78 999.5
20260905035213 61 248 26.0 55.0 4.88 1.02 0.00 78 999.4
20260905034814 61 234 15.0 55.0 4.88 1.02 0.00 78 999.5
20260905034414 61 231 24.0 55.0 4.88 1.02 0.00 78 999.1
20260905034013 61 208 25.0 55.0 4.88 1.02 0.00 79 999.0
20260905033614 61 206 30.0 55.0 4.88 1.02 0.00 79 999.2
20260905033213 61 213 19.0 55.0 4.88 1.02 0.00 78 999.2
20260905032813 61 215 30.0 55.0 4.88 1.02 0.00 79 999.0
20260905032414 61 207 17.0 55.0 4.88 1.01 0.00 79 998.8
20260905032013 61 231 26.0 55.0 4.88 1.01 0.00 79 998.8
20260905031613 61 208 22.0 55.0 4.88 1.01 0.00 79 998.8
20260905031214 61 215 19.0 55.0 4.88 1.01 0.00 78 998.8
20260905030813 61 218 26.0 55.0 4.88 1.01 0.00 78 998.8
20260905030413 61 214 23.0 55.0 4.88 1.01 0.00 79 998.6
20260905030014 61 218 33.0 55.0 4.88 1.01 0.00 78 998.6
20260905025613 61 210 26.0 55.0 4.88 1.01 0.00 79 998.5
20260905025214 61 206 31.0 55.0 4.88 1.01 0.00 80 998.3
20260905024813 61 215 20.0 55.0 4.88 1.01 0.00 79 998.2
20260905024413 61 242 18.0 55.0 4.88 1.01 0.00 80 998.2
20260905024013 61 231 16.0 55.0 4.88 1.01 0.00 80 998.2
20260905023613 61 214 15.0 55.0 4.88 1.02 0.00 80 998.0
20260905023213 61 220 25.0 55.0 4.88 1.02 0.00 80 998.1
20260905022813 61 158 14.0 55.0 4.88 1.01 0.00 81 998.0
20260905022413 61 208 15.0 55.0 4.88 1.01 0.00 81 998.2
20260905022013 61 206 22.0 55.0 4.88 1.02 0.00 81 998.3
20260905021615 61 211 24.0 55.0 4.88 1.02 0.00 81 998.1
20260905021213 59 230 15.0 55.0 4.92 1.02 0.00 80 998.2
20260905020813 59 214 18.0 55.0 4.92 1.02 0.00 82 998.3
20260905020415 59 207 15.0 55.0 4.92 1.02 0.00 81 998.3
20260905020013 59 208 28.0 55.0 4.92 1.02 0.00 81 998.3
20260905015613 59 217 30.0 55.0 4.92 1.02 0.00 82 998.1
20260905015213 59 232 22.0 55.0 4.92 1.02 0.00 82 998.1
20260905014813 59 225 23.0 55.0 4.92 1.02 0.00 82 997.9
20260905014413 59 234 30.0 55.0 4.92 1.02 0.00 82 998.2
20260905014013 61 215 19.0 55.0 4.92 1.02 0.00 82 998.0
20260905013613 61 221 14.0 55.0 4.92 1.02 0.00 82 998.1
20260905013213 61 246 24.0 55.0 4.92 1.02 0.00 82 998.1
20260905012813 61 213 16.0 55.0 4.92 1.02 0.00 81 998.2
20260905012413 59 231 22.0 55.0 4.92 1.02 0.00 81 998.2
20260905012013 61 230 20.0 55.0 4.92 1.03 0.00 81 998.1
20260905011613 61 235 18.0 55.0 4.92 1.03 0.00 80 997.9
20260905011213 61 231 19.0 55.0 4.92 1.03 0.00 80 997.9
20260905010813 61 207 14.0 55.0 4.92 1.05 0.00 81 997.8
20260905010413 61 228 22.0 55.0 4.92 1.05 0.00 81 998.0
20260905010015 61 244 17.0 55.0 4.92 1.05 0.00 81 998.0
20260905005613 61 252 19.0 55.0 4.92 1.06 0.00 81 997.8
20260905005213 61 222 18.0 55.0 4.92 1.06 0.00 81 997.7
20260905004813 63 220 13.0 55.0 4.92 1.07 0.00 82 997.5
20260905004413 63 251 17.0 55.0 4.92 1.07 0.00 81 997.6
20260905004013 63 225 13.0 55.0 4.92 1.08 0.00 81 997.7
20260905003613 63 208 12.0 55.0 4.92 1.08 0.00 81 997.6
20260905003213 64 235 12.0 55.0 4.92 1.09 0.00 81 997.5
20260905002813 63 237 9.0 55.0 4.92 1.09 0.00 81 997.4